Date String (YYYY-MM-DD hh:mm:ss) UTC,Instrument flags,Ambient pressure (hPa),Sample flow (lpm),Bypass flow (lpm),Sample temperature (°C),Ambient temperature (°C),ASC tube jacket temperature (°C),LED temperature (°C),Box temperature (°C),Sample RH (%),Span deviation,Mass concentration (μg/m³),Mass concentration (μg/m³),Mass concentration (μg/m³)
DateTimeUTC,F1_M11,P_M11,Q1_M11,Q2_M11,T1_M11,T2_M11,T3_M11,T4_M11,T5_M11,U1_M11,ZSPAN_M11,X0_M11,X2_M11,X1_M11
2021-10-06 10:00:00,,0827.7,5.00,0.00,30.3,29.3,00.0,39.4,32.0,12.8,0000.0,0015.04,0005.18,0003.96
2021-10-06 10:01:00,,0827.7,5.00,0.00,30.3,29.4,00.0,39.4,32.0,12.9,0000.0,0014.81,0005.10,0003.96
2021-10-06 10:02:00,,0827.7,5.00,0.00,30.3,29.4,00.0,39.4,32.0,12.9,0000.0,0014.75,0005.10,0003.97
2021-10-06 10:03:00,,0827.7,5.00,0.00,30.3,29.4,00.0,39.4,32.0,12.8,0000.0,0013.81,0005.10,0003.97
2021-10-06 10:04:00,,0827.7,5.00,0.00,30.3,29.4,00.0,39.4,32.1,12.8,0000.0,0013.74,0005.11,0003.99
2021-10-06 10:05:00,,0827.7,5.00,0.00,30.3,29.4,00.0,39.4,32.1,12.8,0000.0,0013.39,0005.09,0003.99
2021-10-06 10:06:00,,0827.7,4.99,0.00,30.3,29.4,00.0,39.4,32.0,12.8,0000.0,0012.81,0005.07,0003.99
2021-10-06 10:07:00,,0827.7,5.01,0.00,30.3,29.4,00.0,39.4,32.1,12.8,0000.0,0013.12,0005.06,0003.99
2021-10-06 10:08:00,,0827.7,5.00,0.00,30.3,29.4,00.0,39.4,32.1,12.9,0000.0,0013.16,0005.09,0004.00
2021-10-06 10:09:00,,0827.7,4.99,0.00,30.3,29.4,00.0,39.5,32.1,12.8,0000.0,0013.49,0005.10,0004.00
2021-10-06 10:10:00,,0827.7,4.99,0.00,30.3,29.4,00.0,39.5,32.1,12.8,0000.0,0014.60,0005.06,0004.00
2021-10-06 10:11:00,,0827.7,4.99,0.00,30.3,29.4,00.0,39.5,32.1,12.8,0000.0,0014.88,0005.02,0003.97
2021-10-06 10:12:00,,0827.7,5.01,0.00,30.3,29.3,00.0,39.4,32.1,12.8,0000.0,0014.92,0004.98,0003.95
2021-10-06 10:13:00,,0827.7,4.99,0.00,30.3,29.3,00.0,39.4,32.1,12.8,0000.0,0014.62,0004.92,0003.92
2021-10-06 10:14:00,,0827.7,5.00,0.00,30.3,29.3,00.0,39.4,32.1,12.8,0000.0,0014.77,0004.86,0003.89
2021-10-06 10:15:00,,0827.7,5.00,0.00,30.3,29.3,00.0,39.4,32.1,12.8,0000.0,0014.90,0004.80,0003.86
2021-10-06 10:16:00,,0827.8,5.00,0.00,30.3,29.3,00.0,39.4,32.1,12.8,0000.0,0015.11,0004.79,0003.84
2021-10-06 10:17:00,,0827.7,5.00,0.00,30.3,29.3,00.0,39.4,32.0,12.9,0000.0,0015.03,0004.77,0003.82
2021-10-06 10:18:00,,0827.7,5.01,0.00,30.3,29.3,00.0,39.4,32.0,12.9,0000.0,0013.99,0004.64,0003.79
2021-10-06 10:19:00,,0827.7,5.00,0.00,30.2,29.3,00.0,39.4,32.0,13.0,0000.0,0013.47,0004.55,0003.74
2021-10-06 10:20:00,,0827.7,5.00,0.00,30.2,29.3,00.0,39.4,32.0,13.0,0000.9,0013.49,0004.52,0003.71
2021-10-06 10:21:00,,0827.7,5.00,0.00,30.2,29.2,00.0,39.4,32.0,13.0,0000.9,0011.93,0004.49,0003.69
2021-10-06 10:22:00,,0827.7,5.00,0.00,30.2,29.2,00.0,39.4,32.0,13.0,0002.9,0011.13,0004.45,0003.70
2021-10-06 10:23:00,,0827.7,5.01,0.00,30.2,29.2,00.0,39.4,31.9,13.0,0002.8,0010.99,0004.46,0003.70
2021-10-06 10:24:00,,0827.8,4.98,0.00,30.2,29.2,00.0,39.3,31.9,13.0,0001.7,0010.76,0004.46,0003.72
2021-10-06 10:25:00,,0827.7,5.01,0.00,30.1,29.2,00.0,39.3,31.9,13.1,0000.0,0010.51,0004.44,0003.73
2021-10-06 10:26:00,,0827.7,5.00,0.00,30.1,29.2,00.0,39.3,31.9,13.2,0001.5,0009.94,0004.43,0003.74
2021-10-06 10:27:00,,0827.7,5.01,0.00,30.1,29.1,00.0,39.3,31.9,13.4,0000.7,0009.82,0004.44,0003.74
2021-10-06 10:28:00,,0827.7,4.99,0.00,30.1,29.1,00.0,39.3,31.8,13.4,0000.0,0010.65,0004.50,0003.76
2021-10-06 10:29:00,,0827.8,4.99,0.00,30.1,29.1,00.0,39.3,31.9,13.5,0000.0,0011.13,0004.60,0003.78
2021-10-06 10:30:00,,0827.7,4.98,0.00,30.1,29.1,00.0,39.3,31.8,13.5,0000.0,0011.32,0004.67,0003.81
2021-10-06 10:31:00,,0827.7,5.00,0.00,30.0,29.1,00.0,39.3,31.8,13.5,0000.0,0010.49,0004.69,0003.82
2021-10-06 10:32:00,,0827.7,5.00,0.00,30.0,29.1,00.0,39.3,31.7,13.5,0000.0,0010.59,0004.72,0003.85
2021-10-06 10:33:00,,0827.7,5.00,0.00,30.0,29.1,00.0,39.2,31.7,13.5,0000.6,0010.80,0004.80,0003.87
2021-10-06 10:34:00,,0827.7,5.01,0.00,30.0,29.1,00.0,39.2,31.7,13.4,0001.2,0011.05,0004.87,0003.89
2021-10-06 10:35:00,,0827.7,4.99,0.00,30.1,29.1,00.0,39.2,31.7,13.4,0000.7,0011.15,0004.92,0003.90
2021-10-06 10:36:00,,0827.7,5.02,0.00,30.0,29.1,00.0,39.2,31.7,13.4,0000.9,0011.15,0005.03,0003.91
2021-10-06 10:37:00,,0827.7,5.00,0.00,30.0,29.1,00.0,39.2,31.7,13.5,0001.4,0011.61,0005.08,0003.94
2021-10-06 10:38:00,,0827.7,5.00,0.00,30.0,29.1,00.0,39.2,31.7,13.5,0001.4,0011.95,0005.10,0003.96
2021-10-06 10:39:00,,0827.7,4.99,0.00,30.0,29.1,00.0,39.2,31.7,13.5,0001.2,0012.06,0005.12,0003.98
2021-10-06 10:40:00,,0827.7,4.99,0.00,30.0,29.0,00.0,39.2,31.7,13.5,0001.2,0012.60,0005.09,0003.97
2021-10-06 10:41:00,,0827.7,5.00,0.00,30.0,29.0,00.0,39.2,31.7,13.6,0000.8,0012.95,0005.09,0003.98
2021-10-06 10:42:00,,0827.7,5.01,0.00,29.9,29.0,00.0,39.1,31.7,13.6,0000.8,0013.70,0005.09,0003.99
2021-10-06 10:43:00,,0827.7,5.00,0.00,29.9,29.0,00.0,39.1,31.7,13.6,0001.0,0014.21,0005.08,0003.98
2021-10-06 10:44:00,,0827.7,5.02,0.00,29.9,29.0,00.0,39.1,31.7,13.7,0001.0,0014.45,0005.02,0003.98
2021-10-06 10:45:00,,0827.7,5.00,0.00,29.9,29.0,00.0,39.1,31.7,13.7,0000.4,0014.51,0004.99,0003.98
2021-10-06 10:46:00,,0827.7,5.00,0.00,29.9,29.0,00.0,39.1,31.7,13.7,0001.5,0014.77,0004.97,0003.98
2021-10-06 10:47:00,,0827.7,5.01,0.00,29.9,29.0,00.0,39.1,31.7,13.7,0000.4,0014.83,0004.92,0003.98
2021-10-06 10:48:00,,0827.8,4.99,0.00,29.9,29.0,00.0,39.1,31.6,13.8,0000.0,0014.58,0004.92,0003.97
2021-10-06 10:49:00,,0827.7,4.99,0.00,29.9,29.0,00.0,39.1,31.6,13.8,0000.3,0014.94,0004.93,0003.97
2021-10-06 10:50:00,,0827.7,4.99,0.00,29.9,28.9,00.0,39.1,31.6,13.8,0000.4,0014.00,0004.89,0003.97
2021-10-06 10:51:00,,0827.7,5.00,0.00,29.9,29.0,00.0,39.1,31.6,13.8,0000.3,0013.83,0004.91,0003.98
2021-10-06 10:52:00,,0827.7,5.01,0.00,29.8,28.9,00.0,39.1,31.6,13.8,0000.8,0014.49,0004.96,0003.98
2021-10-06 10:53:00,,0827.7,5.00,0.00,29.8,28.9,00.0,39.0,31.5,13.9,0001.0,0013.83,0004.96,0003.99
2021-10-06 10:54:00,,0827.7,4.98,0.00,29.8,28.9,00.0,39.0,31.5,13.8,0000.7,0013.45,0004.98,0003.98
2021-10-06 10:55:00,,0827.7,5.01,0.00,29.8,28.9,00.0,39.0,31.5,13.9,0000.6,0013.31,0005.02,0003.97
2021-10-06 10:56:00,,0827.7,4.99,0.00,29.8,28.9,00.0,39.0,31.5,13.8,0000.3,0013.79,0005.05,0003.97
2021-10-06 10:57:00,,0827.7,5.01,0.00,29.8,28.9,00.0,39.0,31.5,13.8,0000.8,0014.14,0005.09,0003.97
2021-10-06 10:58:00,,0827.7,5.01,0.00,29.8,28.8,00.0,39.0,31.5,13.8,0000.6,0013.78,0005.08,0003.97
2021-10-06 10:59:00,,0827.7,4.99,0.00,29.7,28.8,00.0,39.0,31.5,13.7,0000.7,0013.68,0005.06,0003.97
